Flag for Germany Weather past 2 weeks in Greifswald, Mecklenburg-Western Pomerania, Germany

Now
63 °F

Overcast.


Feels Like: 63 °F
Forecast: 47 / 61 °F
Wind: 5 mph from South

Location: Greifswald

Current Time: Apr 25, 2015 at 5:33:35 PM

Latest Report: Apr 25, 2015 at 4:00 PM


Visibility: 7 mi

Pressure: 29.71 "Hg

Humidity: 66%

Dew point: 52 °F

Location of GreifswaldLocation

Historic Weather in Greifswald — Graph

°F

Greifswald temperature yesterday

Maximum temperature yesterday: 62 °F (at 6:00 PM)
Minimum temperature yesterday: 45 °F (at 6:00 AM)
Average temperature yesterday: 51 °F

Past Weeks' High & Low Weather Summary

 TemperatureHumidityPressure
High69 °F (Apr 11, 2:00 PM)100% (Apr 25, 3:00 AM)30.33 "Hg (Apr 25, 3:00 AM)
Low35 °F (Apr 18, 6:00 AM)37% (Apr 11, 4:00 PM)29.71 "Hg (Apr 25, 4:00 PM)
Average49 °F69%30.09 "Hg
* Reported Apr 10 4:00 PM — Apr 25 4:00 PM, Greifswald, Weather by CustomWeather, © 2015

Note: Actual official high and low records may vary slightly from our data, if they occured in-between our weather recording intervals... More about our weather records

Advertising

Greifswald weather history for previous 24 hours

 ConditionsComfort  
Time TempWeatherWind HumidityBarometerVisibility
4:00 PM
Sat, Apr 25
63 °FOvercast.5 mph66%29.71 "Hg7 mi
3:00 PM61 °FOvercast.2 mph77%29.72 "Hg5 mi
2:00 PM56 °FLight rain. Overcast.2 mph88%29.74 "Hg3 mi
1:00 PM57 °FLight rain. Overcast.3 mph76%29.77 "Hg4 mi
12:00 PM64 °FOvercast.7 mph48%29.75 "Hg7 mi
10:00 AM61 °FOvercast.5 mph52%29.75 "Hg5 mi
9:00 AM58 °FOvercast.3 mph58%29.75 "Hg5 mi
8:00 AM54 °FPassing clouds.2 mph65%29.75 "Hg5 mi
7:00 AM48 °FPassing clouds.2 mph79%29.76 "Hg5 mi
6:00 AM45 °FFog.2 mph88%29.76 "Hg4 mi
3:00 AM44 °FFog.1 mph100%29.79 "Hg4 mi
1:00 AM43 °FFog.1 mph99%29.82 "Hg1 mi
12:00 AM45 °FFog.1 mph97%29.82 "Hg1 mi
10:00 PM
Fri, Apr 24
47 °FFog.3 mph94%29.83 "Hg4 mi
9:00 PM51 °FPassing clouds.3 mph90%29.84 "Hg7 mi
8:00 PM52 °FPartly sunny.3 mph90%29.84 "Hg6 mi
7:00 PM61 °FPartly sunny.3 mph53%29.85 "Hg12 mi
6:00 PM62 °FPartly sunny.3 mph53%29.85 "Hg17 mi
Weather by CustomWeather, © 2015

See weather overviewHow to use our weather pages